FW8228 Weather Reports


Display with metric or nautical units.
time (UTC)temp
F
wind
direction
speed
MPH
gust
MPH
rain 1hr
in
rain 24hr
in
rain mn
in
humidity
%
barometer
mb
20260510162036 91 217 0.0 1.0 0.00 0.00 0.00 64 1018.1
20260510161532 90 9 0.0 0.0 0.00 0.00 0.00 66 1018.1
20260510161029 89 211 0.0 2.0 0.00 0.00 0.00 67 1018.2
20260510160526 89 298 0.0 0.0 0.00 0.00 0.00 68 1018.5
20260510160025 88 265 0.0 0.0 0.00 0.00 0.00 70 1018.2
20260510155522 88 156 0.0 0.0 0.00 0.00 0.00 69 1018.2
20260510155018 89 272 0.0 0.0 0.00 0.00 0.00 69 1018.0
20260510154515 89 308 0.0 0.0 0.00 0.00 0.00 70 1018.2
20260510154015 88 213 1.0 3.0 0.00 0.00 0.00 71 1018.4
20260510153510 87 294 0.0 0.0 0.00 0.00 0.00 71 1018.3
20260510153007 87 195 0.0 0.0 0.00 0.00 0.00 72 1018.4
20260510152504 87 13 0.0 0.0 0.00 0.00 0.00 71 1018.3
20260510152000 88 225 0.0 0.0 0.00 0.00 0.00 71 1018.1
20260510151458 87 122 0.0 0.0 0.00 0.00 0.00 71 1018.4
20260510150954 87 305 0.0 0.0 0.00 0.00 0.00 71 1018.2
20260510150450 86 331 0.0 0.0 0.00 0.00 0.00 72 1018.2
20260510145946 86 220 0.0 0.0 0.00 0.00 0.00 73 1018.2
20260510145442 87 271 0.0 0.0 0.00 0.00 0.00 73 1018.1
20260510144939 86 313 0.0 0.0 0.00 0.00 0.00 73 1018.1
20260510144436 86 283 0.0 0.0 0.00 0.00 0.00 73 1018.1
20260510143931 87 94 0.0 0.0 0.00 0.00 0.00 72 1018.1
20260510143427 86 277 0.0 0.0 0.00 0.00 0.00 73 1018.0
20260510142924 85 229 0.0 0.0 0.00 0.00 0.00 74 1018.0
20260510142421 86 220 0.0 0.0 0.00 0.00 0.00 73 1018.1
20260510141917 86 208 0.0 1.0 0.00 0.00 0.00 73 1017.9
20260510141414 86 266 0.0 2.0 0.00 0.00 0.00 73 1018.1
20260510140911 86 201 0.0 0.0 0.00 0.00 0.00 73 1017.9
20260510140407 85 134 0.0 2.0 0.00 0.00 0.00 74 1017.9
20260510135901 84 282 0.0 0.0 0.00 0.00 0.00 75 1018.0
20260510135357 84 137 0.0 0.0 0.00 0.00 0.00 75 1018.1
20260510134855 83 221 0.0 0.0 0.00 0.00 0.00 76 1018.0
20260510134351 83 172 0.0 0.0 0.00 0.00 0.00 76 1017.8
20260510133847 83 188 0.0 0.0 0.00 0.00 0.00 77 1017.7
20260510133344 82 223 0.0 0.0 0.00 0.00 0.00 78 1017.8
20260510132839 82 179 0.0 0.0 0.00 0.00 0.00 79 1017.5
20260510132338 80 124 0.0 0.0 0.00 0.00 0.00 81 1017.5
20260510131834 79 222 0.0 0.0 0.00 0.00 0.00 82 1017.6
20260510131332 78 219 0.0 0.0 0.00 0.00 0.00 82 1017.8
20260510130828 78 98 0.0 0.0 0.00 0.00 0.00 84 1017.7
20260510130325 77 266 0.0 0.0 0.00 0.00 0.00 84 1017.5
20260510125821 77 356 0.0 0.0 0.00 0.00 0.00 86 1017.9
20260510125318 76 48 0.0 0.0 0.00 0.00 0.00 86 1017.7
20260510124815 76 226 0.0 0.0 0.00 0.00 0.00 87 1017.8
20260510124312 76 139 0.0 0.0 0.00 0.00 0.00 88 1017.7
20260510123807 75 10 0.0 0.0 0.00 0.00 0.00 89 1017.6
20260510123303 75 86 0.0 0.0 0.00 0.00 0.00 90 1017.5
20260510122759 74 44 0.0 0.0 0.00 0.00 0.00 90 1017.6
20260510122256 74 44 0.0 0.0 0.00 0.00 0.00 91 1017.6
20260510121752 74 290 0.0 0.0 0.00 0.00 0.00 91 1017.5
20260510121250 74 29 0.0 0.0 0.00 0.00 0.00 92 1017.5
20260510120747 74 268 0.0 0.0 0.00 0.00 0.00 92 1017.3
20260510120243 73 69 0.0 0.0 0.00 0.00 0.00 93 1017.3
20260510115739 73 72 0.0 0.0 0.00 0.00 0.00 93 1017.1
20260510115238 73 86 0.0 0.0 0.00 0.00 0.00 93 1017.1
20260510114732 73 62 0.0 0.0 0.00 0.00 0.00 93 1017.1
20260510114230 73 62 0.0 0.0 0.00 0.00 0.00 93 1017.0
20260510113725 72 62 0.0 0.0 0.00 0.00 0.00 93 1016.8
20260510113223 72 62 0.0 0.0 0.00 0.00 0.00 93 1016.6
20260510112718 72 62 0.0 0.0 0.00 0.00 0.00 93 1016.7
20260510112216 72 62 0.0 0.0 0.00 0.00 0.00 93 1016.5
20260510111711 72 62 0.0 0.0 0.00 0.00 0.00 93 1016.2
20260510111209 72 62 0.0 0.0 0.00 0.00 0.00 93 1016.1
20260510110709 72 72 0.0 0.0 0.00 0.00 0.00 93 1016.2
20260510110207 72 73 0.0 0.0 0.00 0.00 0.00 93 1016.0
20260510105706 71 70 0.0 0.0 0.00 0.00 0.00 93 1015.8
20260510105201 72 70 0.0 0.0 0.00 0.00 0.00 92 1016.0
20260510104658 71 70 0.0 0.0 0.00 0.00 0.00 92 1016.0
20260510104155 71 70 0.0 0.0 0.00 0.00 0.00 92 1015.8
20260510103652 71 70 0.0 0.0 0.00 0.00 0.00 92 1015.9
20260510103148 72 70 0.0 0.0 0.00 0.00 0.00 92 1015.9
20260510102648 72 70 0.0 0.0 0.00 0.00 0.00 92 1015.8
20260510102145 72 70 0.0 0.0 0.00 0.00 0.00 92 1015.6
20260510101642 71 70 0.0 0.0 0.00 0.00 0.00 92 1015.6
20260510101141 72 71 0.0 0.0 0.00 0.00 0.00 92 1015.4
20260510100636 72 72 0.0 0.0 0.00 0.00 0.00 92 1015.5
20260510100134 72 72 0.0 0.0 0.00 0.00 0.00 92 1015.2
20260510095629 72 83 0.0 0.0 0.00 0.00 0.00 92 1015.3
20260510095125 72 78 0.0 0.0 0.00 0.00 0.00 92 1015.3
20260510094623 72 94 0.0 0.0 0.00 0.00 0.00 92 1015.3
20260510094119 72 80 0.0 0.0 0.00 0.00 0.00 92 1015.2
20260510093616 72 73 0.0 0.0 0.00 0.00 0.00 92 1015.0
20260510093113 72 86 0.0 0.0 0.00 0.00 0.00 92 1015.1
20260510092609 72 78 0.0 0.0 0.00 0.00 0.00 92 1015.4
20260510092109 72 78 0.0 0.0 0.00 0.00 0.00 92 1015.2
20260510091606 73 78 0.0 0.0 0.00 0.00 0.00 92 1015.3
20260510091102 73 212 0.0 0.0 0.00 0.00 0.00 92 1015.2
20260510090559 73 99 0.0 0.0 0.00 0.00 0.00 92 1014.9
20260510090055 73 101 0.0 0.0 0.00 0.00 0.00 92 1014.9
20260510085550 73 102 0.0 0.0 0.00 0.00 0.00 92 1014.9
20260510085046 73 87 0.0 0.0 0.00 0.00 0.00 92 1015.1
20260510084543 73 92 0.0 0.0 0.00 0.00 0.00 92 1015.1
20260510084040 73 91 0.0 0.0 0.00 0.00 0.00 92 1014.6
20260510083536 73 67 0.0 0.0 0.00 0.00 0.00 92 1014.5
20260510083032 73 66 0.0 0.0 0.00 0.00 0.00 92 1014.7
20260510082529 73 67 0.0 0.0 0.00 0.00 0.00 92 1014.6
20260510082025 73 79 0.0 0.0 0.00 0.00 0.00 92 1014.7
20260510081520 73 54 0.0 0.0 0.00 0.00 0.00 92 1014.6
20260510081016 73 83 0.0 0.0 0.00 0.00 0.00 91 1014.5
20260510080515 73 99 0.0 0.0 0.00 0.00 0.00 91 1014.7
20260510080012 73 104 0.0 0.0 0.00 0.00 0.00 91 1014.7
20260510075509 73 63 0.0 0.0 0.00 0.00 0.00 91 1014.6
20260510075006 73 121 0.0 0.0 0.00 0.00 0.00 91 1014.5
20260510074504 73 73 0.0 0.0 0.00 0.00 0.00 92 1014.6
20260510073959 73 128 0.0 0.0 0.00 0.00 0.00 92 1014.7
20260510073455 73 93 0.0 0.0 0.00 0.00 0.00 92 1014.8
20260510072952 73 95 0.0 0.0 0.00 0.00 0.00 92 1014.8
20260510072449 73 77 0.0 0.0 0.00 0.00 0.00 92 1014.7
20260510071944 73 93 0.0 0.0 0.00 0.00 0.00 91 1015.0
20260510071441 73 77 0.0 0.0 0.00 0.00 0.00 91 1014.9
20260510070939 73 82 0.0 0.0 0.00 0.00 0.00 91 1015.1
20260510070436 73 75 0.0 0.0 0.00 0.00 0.00 91 1015.2
20260510065931 73 74 0.0 0.0 0.00 0.00 0.00 91 1015.0
20260510065429 73 68 0.0 0.0 0.00 0.00 0.00 91 1014.8
20260510064924 73 74 0.0 0.0 0.00 0.00 0.00 91 1014.8
20260510064422 73 83 0.0 0.0 0.00 0.00 0.00 91 1015.2
20260510063919 73 67 0.0 0.0 0.00 0.00 0.00 91 1015.2
20260510063415 73 69 0.0 0.0 0.00 0.00 0.00 91 1015.3
20260510062913 73 71 0.0 0.0 0.00 0.00 0.00 91 1015.5
20260510062408 73 89 0.0 0.0 0.00 0.00 0.00 91 1015.6
20260510061904 73 86 0.0 0.0 0.00 0.00 0.00 90 1015.7
20260510061400 73 74 0.0 0.0 0.00 0.00 0.00 90 1015.6
20260510060856 73 80 0.0 0.0 0.00 0.00 0.00 90 1015.5
20260510060353 73 68 0.0 0.0 0.00 0.00 0.00 90 1015.6
20260510055849 73 70 0.0 0.0 0.00 0.00 0.00 90 1015.8
20260510055350 72 67 0.0 0.0 0.00 0.00 0.00 90 1015.9
20260510054848 73 70 0.0 0.0 0.00 0.00 0.00 90 1016.0
20260510054344 73 81 0.0 0.0 0.00 0.00 0.00 89 1016.0
20260510053839 73 68 0.0 0.0 0.00 0.00 0.00 89 1016.0
20260510053335 73 64 0.0 0.0 0.00 0.00 0.00 89 1016.3
20260510052831 73 59 0.0 0.0 0.00 0.00 0.00 89 1016.4
20260510052327 73 51 0.0 0.0 0.00 0.00 0.00 89 1016.3
20260510051824 73 68 0.0 0.0 0.00 0.00 0.00 88 1016.5
20260510051321 72 63 0.0 0.0 0.00 0.00 0.00 88 1016.4
20260510050818 73 63 0.0 0.0 0.00 0.00 0.00 87 1016.3
20260510050314 73 63 0.0 0.0 0.00 0.00 0.00 87 1016.6
20260510045811 73 63 0.0 0.0 0.00 0.00 0.00 87 1016.4
20260510045308 73 68 0.0 0.0 0.00 0.00 0.00 87 1016.4
20260510044805 73 60 0.0 0.0 0.00 0.00 0.00 86 1016.7
20260510044302 74 59 0.0 0.0 0.00 0.00 0.00 86 1016.5
20260510043758 74 65 0.0 0.0 0.00 0.00 0.00 86 1016.5
20260510043254 74 70 0.0 0.0 0.00 0.00 0.00 86 1016.7
20260510042752 74 70 0.0 0.0 0.00 0.00 0.00 86 1016.7
20260510042247 74 67 0.0 0.0 0.00 0.00 0.00 85 1016.8
20260510041744 74 61 0.0 0.0 0.00 0.00 0.00 85 1016.7
20260510041241 74 53 0.0 0.0 0.00 0.00 0.00 85 1016.8
20260510040739 74 63 0.0 0.0 0.00 0.00 0.00 85 1016.7
20260510040230 74 75 0.0 0.0 0.00 0.00 0.00 85 1016.7
20260510035725 74 53 0.0 0.0 0.00 0.00 0.00 85 1016.8
20260510035221 74 65 0.0 0.0 0.00 0.00 0.00 85 1016.8
20260510034717 74 63 0.0 0.0 0.00 0.00 0.00 85 1016.6
20260510034215 74 63 0.0 0.0 0.00 0.00 0.00 85 1016.7
20260510033711 74 64 0.0 0.0 0.00 0.00 0.00 85 1016.7
20260510033209 74 64 0.0 0.0 0.00 0.00 0.00 84 1016.8
20260510032705 74 38 0.0 0.0 0.00 0.00 0.00 85 1017.1
20260510032201 73 54 0.0 0.0 0.00 0.00 0.00 85 1016.8
20260510031655 73 58 0.0 0.0 0.00 0.00 0.00 84 1016.6
20260510031152 73 63 0.0 0.0 0.00 0.00 0.00 84 1016.7
20260510030646 73 78 0.0 0.0 0.00 0.00 0.00 84 1016.6
20260510030144 73 60 0.0 0.0 0.00 0.00 0.00 84 1016.8
20260510025641 73 60 0.0 0.0 0.00 0.00 0.00 84 1016.7
20260510025139 74 63 0.0 0.0 0.00 0.00 0.00 84 1016.6
20260510024635 74 66 0.0 0.0 0.00 0.00 0.00 84 1016.3
20260510024132 74 65 0.0 0.0 0.00 0.00 0.00 84 1016.5
20260510023628 74 65 0.0 0.0 0.00 0.00 0.00 83 1016.2
20260510023125 74 69 0.0 0.0 0.00 0.00 0.00 83 1016.2
20260510022625 75 75 0.0 0.0 0.00 0.00 0.00 83 1016.5
20260510022120 75 67 0.0 0.0 0.00 0.00 0.00 83 1016.2
20260510021616 75 68 0.0 0.0 0.00 0.00 0.00 83 1016.2
20260510021114 75 72 0.0 0.0 0.00 0.00 0.00 83 1016.0
20260510020613 75 77 0.0 0.0 0.00 0.00 0.00 83 1016.2
20260510020109 75 65 0.0 0.0 0.00 0.00 0.00 83 1016.0
20260510015606 75 52 0.0 0.0 0.00 0.00 0.00 83 1016.0
20260510015102 75 61 0.0 0.0 0.00 0.00 0.00 83 1016.0
20260510014558 75 63 0.0 0.0 0.00 0.00 0.00 83 1016.1
20260510014055 75 73 0.0 0.0 0.00 0.00 0.00 82 1015.9
20260510013550 75 59 0.0 0.0 0.00 0.00 0.00 82 1016.1
20260510013046 75 56 0.0 0.0 0.00 0.00 0.00 82 1015.9
20260510012545 75 58 0.0 0.0 0.00 0.00 0.00 82 1015.7
20260510012042 76 53 0.0 0.0 0.00 0.00 0.00 82 1015.8
20260510011542 76 84 0.0 0.0 0.00 0.00 0.00 82 1015.7
20260510011038 76 73 0.0 0.0 0.00 0.00 0.00 82 1015.6
20260510010535 76 51 0.0 0.0 0.00 0.00 0.00 81 1015.5
20260510010032 76 59 0.0 0.0 0.00 0.00 0.00 81 1015.8
20260510005527 76 54 0.0 0.0 0.00 0.00 0.00 81 1015.5
20260510005025 76 53 0.0 0.0 0.00 0.00 0.00 81 1015.6
20260510004522 76 64 0.0 0.0 0.00 0.00 0.00 81 1015.2
20260510004021 76 28 0.0 0.0 0.00 0.00 0.00 81 1015.2
20260510003517 76 82 0.0 0.0 0.00 0.00 0.00 81 1015.3
20260510003012 76 58 0.0 0.0 0.00 0.00 0.00 81 1015.1
20260510002508 76 53 0.0 1.0 0.00 0.00 0.00 81 1015.3
20260510002005 76 39 0.0 0.0 0.00 0.00 0.00 81 1015.1
20260510001503 77 71 0.0 5.0 0.00 0.00 0.00 81 1015.1
20260510001001 77 75 0.0 1.0 0.00 0.00 0.00 82 1014.6
20260510000456 77 356 0.0 0.0 0.00 0.00 0.00 82 1014.8
20260509235952 77 37 0.0 0.0 0.00 0.00 0.00 82 1015.1
20260509235449 77 33 0.0 0.0 0.00 0.00 0.00 82 1014.7
20260509234945 77 31 0.0 0.0 0.00 0.00 0.00 81 1014.8
20260509234442 78 342 0.0 0.0 0.00 0.00 0.00 81 1014.7
20260509233940 78 31 0.0 0.0 0.00 0.00 0.00 81 1014.6
20260509233438 78 24 0.0 1.0 0.00 0.00 0.00 81 1014.6
20260509232933 78 27 0.0 0.0 0.00 0.00 0.00 81 1014.7
20260509232432 79 31 0.0 7.0 0.00 0.00 0.00 81 1014.6
20260509231927 82 20 0.0 1.0 0.00 0.00 0.00 79 1014.6
20260509231424 82 32 0.0 0.0 0.00 0.00 0.00 74 1014.2
20260509230922 82 44 0.0 6.0 0.00 0.00 0.00 74 1014.3
20260509230419 82 330 0.0 0.0 0.00 0.00 0.00 74 1014.2
20260509225915 83 6 0.0 0.0 0.00 0.00 0.00 73 1014.3
20260509225411 83 351 0.0 0.0 0.00 0.00 0.00 73 1014.2
20260509224907 83 19 0.0 2.0 0.00 0.00 0.00 73 1014.1
20260509224403 83 344 0.0 0.0 0.00 0.00 0.00 73 1014.0
20260509223901 83 15 0.0 6.0 0.00 0.00 0.00 73 1014.2
20260509223357 84 345 0.0 0.0 0.00 0.00 0.00 72 1014.2
20260509222854 84 344 0.0 0.0 0.00 0.00 0.00 72 1013.8
20260509222349 84 332 0.0 8.0 0.00 0.00 0.00 71 1013.7
20260509221844 84 328 0.0 7.0 0.00 0.00 0.00 71 1013.8
20260509221342 84 326 0.0 0.0 0.00 0.00 0.00 70 1013.7
20260509220837 85 330 1.0 5.0 0.00 0.00 0.00 70 1013.6
20260509220333 85 29 0.0 0.0 0.00 0.00 0.00 69 1013.5
20260509215829 85 5 0.0 0.0 0.00 0.00 0.00 68 1013.5
20260509215326 86 359 0.0 0.0 0.00 0.00 0.00 68 1013.5
20260509214823 86 15 0.0 0.0 0.00 0.00 0.00 67 1013.4
20260509214320 87 9 0.0 5.0 0.00 0.00 0.00 65 1013.5
20260509213817 87 309 0.0 1.0 0.00 0.00 0.00 63 1013.4
20260509213312 88 7 0.0 0.0 0.00 0.00 0.00 63 1013.3
20260509212810 89 303 0.0 0.0 0.00 0.00 0.00 62 1013.2
20260509212308 89 344 0.0 6.0 0.00 0.00 0.00 61 1013.2
20260509211803 90 326 0.0 0.0 0.00 0.00 0.00 60 1013.0
20260509211259 89 278 0.0 0.0 0.00 0.00 0.00 61 1013.3
20260509210756 89 348 0.0 5.0 0.00 0.00 0.00 61 1013.1
20260509210254 90 4 1.0 2.0 0.00 0.00 0.00 61 1013.0
20260509205753 91 308 0.0 0.0 0.00 0.00 0.00 61 1013.1
20260509205248 90 325 0.0 1.0 0.00 0.00 0.00 61 1013.1
20260509204744 90 300 0.0 3.0 0.00 0.00 0.00 61 1013.2
20260509204241 91 306 2.0 6.0 0.00 0.00 0.00 59 1013.2
20260509203737 91 359 0.0 0.0 0.00 0.00 0.00 59 1013.0
20260509203235 90 355 0.0 0.0 0.00 0.00 0.00 60 1013.1
20260509202731 91 227 0.0 0.0 0.00 0.00 0.00 58 1013.2
20260509202227 90 266 0.0 5.0 0.00 0.00 0.00 60 1013.1
20260509201721 90 338 0.0 6.0 0.00 0.00 0.00 60 1013.1
20260509201218 90 295 0.0 0.0 0.00 0.00 0.00 59 1013.0
20260509200714 89 343 0.0 1.0 0.00 0.00 0.00 59 1013.0
20260509200209 89 323 0.0 0.0 0.00 0.00 0.00 60 1013.2
20260509195705 89 335 0.0 0.0 0.00 0.00 0.00 60 1013.0
20260509195201 89 157 0.0 0.0 0.00 0.00 0.00 59 1013.2
20260509194655 89 302 0.0 0.0 0.00 0.00 0.00 58 1013.2
20260509194152 89 277 0.0 0.0 0.00 0.00 0.00 60 1013.2
20260509193648 89 272 0.0 0.0 0.00 0.00 0.00 59 1013.2
20260509193143 89 339 0.0 1.0 0.00 0.00 0.00 59 1013.2
20260509192640 89 315 0.0 0.0 0.00 0.00 0.00 59 1013.3
20260509192136 89 359 0.0 1.0 0.00 0.00 0.00 59 1013.5
20260509191635 89 197 0.0 0.0 0.00 0.00 0.00 60 1013.5
20260509191133 89 316 0.0 0.0 0.00 0.00 0.00 59 1013.4
20260509190629 89 280 0.0 0.0 0.00 0.00 0.00 59 1013.7
20260509190126 89 330 0.0 5.0 0.00 0.00 0.00 59 1013.6
20260509185624 90 294 0.0 0.0 0.00 0.00 0.00 59 1013.7
20260509185120 90 330 0.0 0.0 0.00 0.00 0.00 59 1013.6
20260509184618 89 270 0.0 0.0 0.00 0.00 0.00 60 1013.6
20260509184114 91 300 0.0 1.0 0.00 0.00 0.00 58 1013.6
20260509183610 91 219 0.0 0.0 0.00 0.00 0.00 57 1013.7
20260509183106 91 321 0.0 0.0 0.00 0.00 0.00 58 1013.7
20260509182602 91 333 0.0 0.0 0.00 0.00 0.00 57 1013.8
20260509182059 91 183 0.0 0.0 0.00 0.00 0.00 57 1013.9
20260509181558 92 288 0.0 1.0 0.00 0.00 0.00 57 1013.8
20260509181054 91 334 0.0 0.0 0.00 0.00 0.00 57 1014.2
20260509180550 92 344 0.0 0.0 0.00 0.00 0.00 56 1013.9
20260509180048 92 325 0.0 0.0 0.00 0.00 0.00 57 1014.0
20260509175543 91 281 0.0 0.0 0.00 0.00 0.00 57 1014.1
20260509175040 91 294 0.0 0.0 0.00 0.00 0.00 58 1014.2
20260509174537 91 24 0.0 0.0 0.00 0.00 0.00 58 1014.3
20260509174032 92 322 0.0 0.0 0.00 0.00 0.00 57 1014.3
20260509173526 93 292 0.0 1.0 0.00 0.00 0.00 55 1014.3
20260509173023 93 313 0.0 2.0 0.00 0.00 0.00 58 1014.4
20260509172520 91 260 0.0 0.0 0.00 0.00 0.00 57 1014.2
20260509172016 91 296 0.0 0.0 0.00 0.00 0.00 60 1014.3
20260509171512 90 334 0.0 0.0 0.00 0.00 0.00 62 1014.7
20260509171009 91 272 0.0 0.0 0.00 0.00 0.00 63 1014.5
20260509170504 91 214 0.0 0.0 0.00 0.00 0.00 60 1014.6
20260509170001 91 222 0.0 0.0 0.00 0.00 0.00 60 1014.6
20260509165459 91 228 0.0 0.0 0.00 0.00 0.00 61 1014.7
20260509164955 91 191 0.0 3.0 0.00 0.00 0.00 59 1014.7
20260509164451 91 231 0.0 2.0 0.00 0.00 0.00 60 1014.9
20260509163947 92 221 0.0 0.0 0.00 0.00 0.00 60 1015.0
20260509163445 91 256 0.0 0.0 0.00 0.00 0.00 61 1014.5
20260509162944 91 2 0.0 0.0 0.00 0.00 0.00 60 1014.8
20260509162443 91 106 0.0 0.0 0.00 0.00 0.00 61 1014.8